User: anonymous   Login
Location: Unspecified
(0.0000°N, 0.0000°E)
Time: 08:48:32
(UTC+00:00)
Language:

USA 247 - Orbit

View from above orbital plane
View from above orbital plane
View from above satellite
View from above satellite

Ground track
Ground track

The orbit data is extracted from the following two-line orbital elements,

1 39462U 13072A   15240.90490112 0.00000000  00000-0  00000-0 0    08
2 39462 122.9997  22.4748 0004250  24.5214 335.4786 13.41439908    09
Epoch (UTC): 28 August 2015 21:43:03
Eccentricity: 0.0004250
inclination: 122.9997°
perigee height: 1101 km
apogee height: 1107 km
right ascension of ascending node: 22.4748°
argument of perigee: 24.5214°
revolutions per day: 13.41439908
mean anomaly at epoch: 335.4786°
orbit number at epoch: 0

The dashed part of the orbit path shows where the satellite is in the earth's shadow,  

DLR